WetterOnline ( http://www.wetteronline.de )

Wetter aktuell Bremervörde

Aktuelles Wetter: Bremervörde (5m)

6-stündlich | Neueste Meldungen
Ortszeit Temperatur Wetter
Fr, 19.10. 20:00 6.4° C wolkig
Fr, 19.10. 14:00 12.9° C leicht bewölkt
Fr, 19.10. 8:00 2.0° C bedeckt
Fr, 19.10. 2:00 4.8° C Nebel
Do, 18.10. 20:00 10.1° C wolkig
Do, 18.10. 14:00 13.5° C bedeckt
Do, 18.10. 8:00 9.5° C Nebel
Do, 18.10. 2:00 11.5° C Nebel
Ortszeit Temperatur Wetter
Fr, 19.10. 23:10 3.4° C bewölkt
Fr, 19.10. 23:00 3.3° C bewölkt
Fr, 19.10. 22:50 3.3° C bewölkt
Fr, 19.10. 22:40 3.1° C bewölkt
Fr, 19.10. 22:30 2.8° C wolkig
Fr, 19.10. 22:20 2.8° C wolkig
Fr, 19.10. 22:00 3.5° C fast wolkenlos
Fr, 19.10. 21:30 4.4° C wolkig
Fr, 19.10. 21:00 5.6° C wolkig
Fr, 19.10. 20:30 5.0° C wolkig
Fr, 19.10. 20:00 6.4° C wolkig
Ortszeit Relative Feuchte Sichtweite
Fr, 19.10. 20:00 90% 30 km
Fr, 19.10. 14:00 57% 30 km
Fr, 19.10. 8:00 99% 3.2 km
Fr, 19.10. 2:00 99% 0.8 km
Do, 18.10. 20:00 84% 40 km
Do, 18.10. 14:00 84% 17 km
Do, 18.10. 8:00 100% 100 m
Do, 18.10. 2:00 100% <100 m
Ortszeit Relative Feuchte Sichtweite
Fr, 19.10. 23:10 98% -
Fr, 19.10. 23:00 99% 9 km
Fr, 19.10. 22:50 99% -
Fr, 19.10. 22:40 98% -
Fr, 19.10. 22:30 97% 5.0 km
Fr, 19.10. 22:20 97% -
Fr, 19.10. 22:00 98% 7 km
Fr, 19.10. 21:30 94% 10 km
Fr, 19.10. 21:00 95% 21 km
Fr, 19.10. 20:30 93% 21 km
Fr, 19.10. 20:00 90% 30 km
Ortszeit Niederschlagsmenge Niederschlagsart
Fr, 19.10. 20:00 0.0 l/m2 in 12 Std. -
Fr, 19.10. 14:00 0.0 l/m2 in 3 Std. -
Fr, 19.10. 8:00 0.0 l/m2 in 12 Std. -
Fr, 19.10. 2:00 0.0 l/m2 in 6 Std. -
Do, 18.10. 20:00 0.7 l/m2 in 12 Std. -
Do, 18.10. 14:00 0.7 l/m2 in 6 Std. Regen
Do, 18.10. 8:00 0.1 l/m2 in 12 Std. -
Do, 18.10. 2:00 0.0 l/m2 in 6 Std. -
Ortszeit Niederschlagsmenge Niederschlagsart
Fr, 19.10. 23:10 keine Meldung -
Fr, 19.10. 23:00 0.0 l/m2 in 1 Std. -
Fr, 19.10. 22:50 keine Meldung -
Fr, 19.10. 22:40 keine Meldung -
Fr, 19.10. 22:30 0.0 l/m2 in 1 Std. -
Fr, 19.10. 22:20 keine Meldung -
Fr, 19.10. 22:00 0.0 l/m2 in 1 Std. -
Fr, 19.10. 21:30 0.0 l/m2 in 1 Std. -
Fr, 19.10. 21:00 0.0 l/m2 in 1 Std. -
Fr, 19.10. 20:30 0.0 l/m2 in 1 Std. -
Fr, 19.10. 20:00 0.0 l/m2 in 1 Std. -
Ortszeit Stärke Spitze Richtung
km/h Bft. km/h Grad Sektor
Fr, 19.10. 20:00 0 0 14 - -
Fr, 19.10. 14:00 4 1 14 360° N
Fr, 19.10. 8:00 0 0 7 - -
Fr, 19.10. 2:00 4 1 11 10° N
Do, 18.10. 20:00 9 2 26 340° N
Do, 18.10. 14:00 17 3 28 360° N
Do, 18.10. 8:00 4 1 14 240° SW
Do, 18.10. 2:00 4 1 14 280° W
Ortszeit Stärke Spitze Richtung
km/h Bft. km/h Grad Sektor
Fr, 19.10. 23:10 4 1 - 140° SO
Fr, 19.10. 23:00 2 1 7 270° W
Fr, 19.10. 22:50 2 1 - 270° W
Fr, 19.10. 22:40 4 1 - 280° W
Fr, 19.10. 22:30 7 2 7 270° W
Fr, 19.10. 22:20 7 2 - 270° W
Fr, 19.10. 22:00 0 0 7 - -
Fr, 19.10. 21:30 0 0 4 - -
Fr, 19.10. 21:00 2 1 6 290° W
Fr, 19.10. 20:30 2 1 6 290° W
Fr, 19.10. 20:00 0 0 4 - -
Ortszeit Untergrenze Bedeckung Gattung
total tief tief mittel hoch
Fr, 19.10. 20:00 7500 m 8/8 0/8 - - -
Fr, 19.10. 14:00 930 m 4/8 4/8 - - -
Fr, 19.10. 8:00 990 m 8/8 8/8 - - -
Fr, 19.10. 2:00 - 0/8 0/8 - - -
Do, 18.10. 20:00 1050 m 6/8 6/8 - - -
Do, 18.10. 14:00 330 m 8/8 8/8 - - -
Do, 18.10. 8:00 <30 m 8/8 8/8 - - -
Do, 18.10. 2:00 <30 m 8/8 8/8 - - -
Ortszeit Bedeckungsgrad in Achtel und Wolkenuntergrenze
Fr, 19.10. 23:10 5(1080m) 8(6300m) 8(6900m)
Fr, 19.10. 23:00 7(1050m) 8(6600m) 8(7200m)
Fr, 19.10. 22:50 7(1050m) 8(6600m) 8(7200m)
Fr, 19.10. 22:40 6(1050m) 7(6600m) 7(7500m)
Fr, 19.10. 22:30 1(1080m) 4(6600m) 7(7500m)
Fr, 19.10. 22:20 1(1080m) 4(6600m) 7(7500m)
Fr, 19.10. 22:00 2(9000m) 4(9000m)
Fr, 19.10. 21:30 7(7800m) 7(8100m) 7(9000m)
Fr, 19.10. 21:00 8(7500m) 8(9000m) 8(9000m)
Fr, 19.10. 20:30 7(7500m) 8(9000m) 8(9000m)
Fr, 19.10. 20:00 8(7500m) 8(8100m) 8(8400m)
Ortszeit Luftdruck NN (hPa) Tendenz (hPa in 3 Std.)
Fr, 19.10. 20:00 1027 + 0,7
Fr, 19.10. 14:00 1027 - 0,8
Fr, 19.10. 8:00 1027 + 0,4
Fr, 19.10. 2:00 1027 - 0,4
Do, 18.10. 20:00 1026 + 1,4
Do, 18.10. 14:00 1024 + 1,0
Do, 18.10. 8:00 1022 + 0,6
Do, 18.10. 2:00 1021 + 0,4
Ortszeit Luftdruck NN (hPa) Tendenz (hPa in 3 Std.)
Fr, 19.10. 23:10 1028 keine Meldung
Fr, 19.10. 23:00 1028 + 0,9
Fr, 19.10. 22:50 1028 keine Meldung
Fr, 19.10. 22:40 1028 keine Meldung
Fr, 19.10. 22:30 1028 + 1,1
Fr, 19.10. 22:20 1028 keine Meldung
Fr, 19.10. 22:00 1027 + 0,7
Fr, 19.10. 21:30 1027 + 1,1
Fr, 19.10. 21:00 1027 + 1,3
Fr, 19.10. 20:30 1027 + 1,2
Fr, 19.10. 20:00 1027 + 0,7
Ortszeit Schneehöhe (cm)
Fr, 19.10. 20:00 0
Fr, 19.10. 14:00 -
Fr, 19.10. 8:00 -
Fr, 19.10. 2:00 -
Do, 18.10. 20:00 -
Do, 18.10. 14:00 -
Do, 18.10. 8:00 -
Do, 18.10. 2:00 -
Ortszeit Schneehöhe (cm)
Fr, 19.10. 23:10 -
Fr, 19.10. 23:00 -
Fr, 19.10. 22:50 -
Fr, 19.10. 22:40 -
Fr, 19.10. 22:30 0
Fr, 19.10. 22:20 -
Fr, 19.10. 22:00 -
Fr, 19.10. 21:30 -
Fr, 19.10. 21:00 0
Fr, 19.10. 20:30 -
Fr, 19.10. 20:00 0
Link zu dieser Seite / Seite empfehlen

Das Wetter in ...